| time (UTC) | temp F | wind direction | speed knots | gust knots | rain 1hr in | rain 24hr in | rain mn in | humidity % | barometer mb |
| 20260508043047 | 52 | 31 | 0.9 | 4.3 | 0.00 | 0.00 | 0.00 | 58 | 1012.8 |
| 20260508041545 | 54 | 3 | 0.0 | 4.3 | 0.00 | 0.00 | 0.00 | 57 | 1012.8 |
| 20260508040041 | 55 | 43 | 0.0 | 2.6 | 0.00 | 0.00 | 0.00 | 55 | 1012.6 |
| 20260508034540 | 55 | 295 | 0.0 | 7.0 | 0.00 | 0.00 | 0.00 | 54 | 1012.5 |
| 20260508033039 | 54 | 109 | 0.0 | 3.5 | 0.00 | 0.00 | 0.00 | 58 | 1012.4 |
| 20260508031535 | 54 | 5 | 0.0 | 5.2 | 0.00 | 0.00 | 0.00 | 59 | 1012.3 |
| 20260508030035 | 56 | 313 | 0.9 | 7.0 | 0.00 | 0.00 | 0.00 | 54 | 1012.0 |
| 20260508024534 | 54 | 211 | 0.0 | 1.7 | 0.00 | 0.02 | 0.00 | 58 | 1012.0 |
| 20260508023034 | 56 | 116 | 0.0 | 3.5 | 0.00 | 0.02 | 0.00 | 57 | 1011.8 |
| 20260508021528 | 57 | 322 | 0.0 | 6.1 | 0.00 | 0.02 | 0.00 | 54 | 1011.6 |
| 20260508020024 | 57 | 304 | 0.0 | 6.1 | 0.00 | 0.02 | 0.00 | 55 | 1011.3 |
| 20260508014530 | 57 | 22 | 0.0 | 7.0 | 0.00 | 0.03 | 0.00 | 57 | 1011.0 |
| 20260508013021 | 58 | 308 | 1.7 | 7.8 | 0.00 | 0.03 | 0.00 | 56 | 1010.9 |
| 20260508011520 | 58 | 311 | 2.6 | 9.6 | 0.00 | 0.03 | 0.00 | 55 | 1010.5 |
| 20260508010020 | 58 | 321 | 0.0 | 5.2 | 0.00 | 0.03 | 0.00 | 56 | 1010.3 |
| 20260508004517 | 57 | 306 | 1.7 | 7.0 | 0.00 | 0.03 | 0.00 | 57 | 1010.3 |
| 20260508003016 | 56 | 323 | 0.0 | 1.7 | 0.00 | 0.03 | 0.00 | 68 | 1010.2 |
| 20260508001515 | 57 | 336 | 0.0 | 2.6 | 0.00 | 0.03 | 0.00 | 68 | 1010.0 |
| 20260508000016 | 59 | 95 | 0.0 | 2.6 | 0.00 | 0.03 | 0.00 | 61 | 1009.9 |
| 20260507234518 | 59 | 216 | 0.9 | 4.3 | 0.00 | 0.03 | 0.00 | 60 | 1009.6 |
| 20260507233013 | 60 | 109 | 0.0 | 2.6 | 0.00 | 0.03 | 0.00 | 56 | 1009.4 |
| 20260507231512 | 61 | 59 | 0.0 | 1.7 | 0.00 | 0.03 | 0.00 | 56 | 1009.1 |
| 20260507230013 | 62 | 302 | 0.0 | 3.5 | 0.00 | 0.03 | 0.00 | 56 | 1008.9 |
| 20260507224515 | 62 | 205 | 0.0 | 5.2 | 0.00 | 0.03 | 0.00 | 56 | 1008.8 |
| 20260507223010 | 61 | 234 | 0.9 | 7.0 | 0.00 | 0.03 | 0.00 | 57 | 1008.6 |
| 20260507221509 | 63 | 237 | 0.9 | 8.7 | 0.00 | 0.03 | 0.00 | 58 | 1008.4 |
| 20260507220009 | 62 | 130 | 0.0 | 3.5 | 0.00 | 0.03 | 0.00 | 65 | 1008.2 |
| 20260507214506 | 61 | 84 | 0.0 | 2.6 | 0.00 | 0.03 | 0.00 | 72 | 1008.2 |
| 20260507213006 | 61 | 103 | 0.0 | 4.3 | 0.00 | 0.03 | 0.00 | 74 | 1008.2 |
| 20260507211505 | 61 | 284 | 0.0 | 4.3 | 0.00 | 0.03 | 0.00 | 74 | 1008.2 |
| 20260507210005 | 62 | 121 | 0.9 | 5.2 | 0.00 | 0.03 | 0.00 | 74 | 1008.1 |
| 20260507204503 | 61 | 183 | 2.6 | 5.2 | 0.00 | 0.03 | 0.00 | 73 | 1007.9 |
| 20260507203003 | 61 | 120 | 0.9 | 4.3 | 0.00 | 0.03 | 0.00 | 73 | 1008.0 |
| 20260507201502 | 61 | 107 | 0.9 | 3.5 | 0.00 | 0.03 | 0.00 | 71 | 1008.0 |
| 20260507200101 | 60 | 248 | 0.0 | 3.5 | 0.00 | 0.03 | 0.00 | 76 | 1008.3 |
| 20260507194600 | 60 | 83 | 0.9 | 2.6 | 0.00 | 0.03 | 0.00 | 73 | 1008.8 |
| 20260507193110 | 59 | 230 | 0.0 | 4.3 | 0.00 | 0.03 | 0.00 | 77 | 1009.2 |
| 20260507191600 | 58 | 305 | 0.0 | 1.7 | 0.00 | 0.03 | 0.00 | 76 | 1009.1 |
| 20260507190104 | 58 | 308 | 0.0 | 0.9 | 0.00 | 0.03 | 0.00 | 77 | 1009.3 |
| 20260507184557 | 57 | 327 | 0.0 | 2.6 | 0.00 | 0.03 | 0.00 | 77 | 1009.5 |
| 20260507183059 | 57 | 328 | 0.0 | 2.6 | 0.00 | 0.03 | 0.00 | 78 | 1009.5 |
| 20260507181554 | 57 | 314 | 0.0 | 0.9 | 0.00 | 0.03 | 0.00 | 78 | 1009.6 |
| 20260507180101 | 57 | 336 | 0.0 | 4.3 | 0.00 | 0.03 | 0.00 | 79 | 1009.6 |
| 20260507174554 | 56 | 303 | 0.0 | 2.6 | 0.00 | 0.03 | 0.00 | 78 | 1009.5 |
| 20260507173055 | 56 | 332 | 1.7 | 8.7 | 0.00 | 0.03 | 0.00 | 80 | 1009.6 |
| 20260507171556 | 56 | 352 | 0.9 | 6.1 | 0.00 | 0.03 | 0.00 | 80 | 1009.7 |
| 20260507170050 | 56 | 317 | 0.9 | 7.8 | 0.00 | 0.03 | 0.00 | 82 | 1009.7 |
| 20260507164547 | 56 | 302 | 1.7 | 7.8 | 0.00 | 0.03 | 0.00 | 81 | 1009.7 |
| 20260507163046 | 57 | 303 | 3.5 | 7.0 | 0.00 | 0.03 | 0.00 | 80 | 1009.7 |
| 20260507161543 | 57 | 28 | 0.9 | 7.8 | 0.00 | 0.03 | 0.00 | 79 | 1009.8 |
| 20260507160044 | 57 | 308 | 0.9 | 5.2 | 0.00 | 0.03 | 0.00 | 79 | 1009.8 |
| 20260507154542 | 58 | 313 | 1.7 | 7.0 | 0.00 | 0.03 | 0.00 | 79 | 1010.4 |
| 20260507153049 | 58 | 320 | 0.0 | 4.3 | 0.00 | 0.03 | 0.00 | 79 | 1010.1 |
| 20260507151540 | 58 | 328 | 0.9 | 5.2 | 0.00 | 0.03 | 0.00 | 79 | 1010.1 |
| 20260507150039 | 58 | 314 | 1.7 | 5.2 | 0.00 | 0.03 | 0.00 | 79 | 1009.9 |
| 20260507144537 | 58 | 296 | 0.0 | 2.6 | 0.00 | 0.04 | 0.00 | 79 | 1009.9 |
| 20260507143037 | 58 | 13 | 0.0 | 6.1 | 0.00 | 0.04 | 0.00 | 78 | 1009.9 |
| 20260507141536 | 58 | 332 | 1.7 | 7.0 | 0.00 | 0.04 | 0.00 | 77 | 1010.0 |
| 20260507140043 | 59 | 308 | 1.7 | 7.0 | 0.00 | 0.04 | 0.00 | 76 | 1009.3 |
| 20260507134532 | 59 | 359 | 0.0 | 3.5 | 0.00 | 0.06 | 0.00 | 78 | 1010.1 |
| 20260507133030 | 59 | 306 | 0.0 | 5.2 | 0.00 | 0.06 | 0.00 | 78 | 1010.0 |
| 20260507131525 | 59 | 294 | 0.0 | 3.5 | 0.00 | 0.06 | 0.00 | 79 | 1010.3 |
| 20260507130025 | 59 | 311 | 0.0 | 5.2 | 0.00 | 0.06 | 0.00 | 78 | 1009.9 |
| 20260507124525 | 59 | 318 | 0.0 | 3.5 | 0.00 | 0.06 | 0.00 | 81 | 1010.1 |
| 20260507123024 | 59 | 309 | 0.0 | 3.5 | 0.00 | 0.06 | 0.00 | 80 | 1010.0 |
| 20260507121521 | 59 | 318 | 0.9 | 5.2 | 0.00 | 0.06 | 0.00 | 80 | 1010.0 |
| 20260507120019 | 59 | 81 | 0.0 | 3.5 | 0.00 | 0.06 | 0.00 | 81 | 1009.9 |
| 20260507114519 | 59 | 325 | 0.0 | 7.0 | 0.00 | 0.06 | 0.00 | 80 | 1010.0 |
| 20260507113030 | 59 | 301 | 0.0 | 3.5 | 0.00 | 0.06 | 0.00 | 81 | 1009.7 |
| 20260507111521 | 59 | 358 | 0.0 | 4.3 | 0.00 | 0.06 | 0.00 | 80 | 1009.5 |
| 20260507110017 | 59 | 31 | 0.9 | 9.6 | 0.00 | 0.06 | 0.00 | 80 | 1009.2 |
| 20260507104516 | 59 | 323 | 0.9 | 5.2 | 0.00 | 0.06 | 0.00 | 80 | 1009.0 |
| 20260507103015 | 59 | 348 | 0.0 | 4.3 | 0.00 | 0.06 | 0.00 | 80 | 1009.2 |
| 20260507101512 | 59 | 339 | 1.7 | 8.7 | 0.00 | 0.06 | 0.00 | 80 | 1009.0 |
| 20260507100016 | 60 | 313 | 1.7 | 9.6 | 0.00 | 0.06 | 0.00 | 79 | 1008.9 |
| 20260507094509 | 60 | 325 | 2.6 | 8.7 | 0.00 | 0.06 | 0.00 | 80 | 1009.1 |
| 20260507093013 | 60 | 319 | 0.9 | 5.2 | 0.00 | 0.06 | 0.00 | 81 | 1009.0 |
| 20260507091611 | 60 | 321 | 1.7 | 6.1 | 0.00 | 0.06 | 0.00 | 81 | 1008.9 |
| 20260507090005 | 61 | 53 | 0.0 | 8.7 | 0.00 | 0.06 | 0.00 | 81 | 1008.2 |
| 20260507084501 | 61 | 322 | 0.9 | 7.8 | 0.00 | 0.06 | 0.00 | 81 | 1008.6 |
| 20260507083104 | 62 | 315 | 4.3 | 8.7 | 0.00 | 0.06 | 0.00 | 78 | 1009.0 |
| 20260507081600 | 62 | 7 | 0.9 | 4.3 | 0.00 | 0.06 | 0.00 | 80 | 1008.9 |
| 20260507080131 | 63 | 310 | 0.0 | 2.6 | 0.00 | 0.06 | 0.00 | 81 | 1009.0 |
| 20260507074603 | 63 | 317 | 0.9 | 3.5 | 0.00 | 0.06 | 0.00 | 80 | 1009.1 |
| 20260507073101 | 63 | 217 | 0.0 | 2.6 | 0.00 | 0.06 | 0.00 | 82 | 1008.9 |
| 20260507071602 | 63 | 296 | 0.9 | 3.5 | 0.00 | 0.06 | 0.00 | 83 | 1008.8 |
| 20260507070053 | 64 | 313 | 0.0 | 6.1 | 0.00 | 0.06 | 0.00 | 82 | 1008.5 |
| 20260507064556 | 64 | 103 | 0.0 | 6.1 | 0.00 | 0.06 | 0.00 | 85 | 1008.6 |
| 20260507063054 | 64 | 321 | 0.0 | 4.3 | 0.00 | 0.06 | 0.00 | 86 | 1008.9 |
| 20260507061549 | 64 | 86 | 0.0 | 3.5 | 0.00 | 0.06 | 0.00 | 91 | 1008.6 |
| 20260507060048 | 64 | 332 | 1.7 | 7.0 | 0.00 | 0.06 | 0.00 | 89 | 1008.8 |
| 20260507054552 | 63 | 329 | 0.0 | 3.5 | 0.00 | 0.06 | 0.00 | 92 | 1009.0 |
| 20260507053048 | 63 | 331 | 0.0 | 0.9 | 0.00 | 0.06 | 0.00 | 95 | 1009.3 |
| 20260507051544 | 62 | 308 | 0.0 | 1.7 | 0.00 | 0.06 | 0.00 | 95 | 1009.4 |
| 20260507050040 | 63 | 237 | 0.0 | 0.0 | 0.00 | 0.06 | 0.00 | 93 | 1008.9 |
| 20260507044539 | 63 | 228 | 0.0 | 0.9 | 0.00 | 0.06 | 0.00 | 93 | 1008.7 |